Location: ??????
(56.0120°N, 39.1740°E)
Time: 21:01:03
(UTC+00:00)

Cosmos 2219 Rocket - Pass Details

Date: 14 April 2026
Orbit: 827 x 845 km, 71.0° (Epoch: 11 May)

Event Time Altitude Azimuth Distance (km) Brightness Sun altitude
Rises 23:44:19 0° 322° (NW) 3,387 5.5 -18.1°
Reaches altitude 10° 23:46:58 10° 331° (NNW) 2,453 4.9 -17.9°
Maximum altitude 23:52:08 36° 38° (NE) 1,301 3.8 -17.4°
Drops below altitude 10° 23:57:18 10° 105° (ESE) 2,455 4.9 -17.0°
Sets 23:59:57 0° 114° (ESE) 3,390 5.6 -16.7°
